| time (UTC) | temp F | wind direction | speed knots | gust knots | rain 1hr in | rain 24hr in | rain mn in | humidity % | barometer mb |
| 20260506135234 | 60 | 53 | 3.5 | 7.8 | 0.00 | 0.65 | 0.59 | 81 | 1008.0 |
| 20260506133230 | 60 | 69 | 2.6 | 6.1 | 0.00 | 0.65 | 0.59 | 81 | 1008.1 |
| 20260506132230 | 60 | 53 | 2.6 | 7.8 | 0.00 | 0.65 | 0.59 | 85 | 1008.1 |
| 20260506131230 | 59 | 350 | 4.3 | 11.3 | 0.00 | 0.65 | 0.59 | 85 | 1008.1 |
| 20260506130230 | 59 | 36 | 6.1 | 12.2 | 0.00 | 0.65 | 0.59 | 85 | 1008.2 |
| 20260506125230 | 59 | 52 | 3.5 | 8.7 | 0.00 | 0.65 | 0.59 | 85 | 1008.4 |
| 20260506124229 | 58 | 64 | 2.6 | 7.0 | 0.00 | 0.65 | 0.59 | 89 | 1008.6 |
| 20260506123230 | 57 | 15 | 2.6 | 5.2 | 0.01 | 0.65 | 0.59 | 91 | 1008.9 |
| 20260506122228 | 56 | 90 | 1.7 | 5.2 | 0.02 | 0.65 | 0.59 | 92 | 1008.9 |
| 20260506121228 | 56 | 44 | 1.7 | 3.5 | 0.07 | 0.65 | 0.59 | 92 | 1008.9 |
| 20260506120229 | 56 | 12 | 0.9 | 2.6 | 0.11 | 0.65 | 0.59 | 93 | 1008.9 |
| 20260506115232 | 55 | 117 | 1.7 | 3.5 | 0.11 | 0.65 | 0.59 | 93 | 1009.0 |
| 20260506114228 | 55 | 220 | 0.9 | 2.6 | 0.11 | 0.65 | 0.59 | 93 | 1009.1 |
| 20260506113228 | 55 | 264 | 0.9 | 2.6 | 0.11 | 0.64 | 0.58 | 93 | 1009.1 |
| 20260506112229 | 55 | 240 | 2.6 | 4.3 | 0.13 | 0.63 | 0.57 | 93 | 1009.0 |
| 20260506111230 | 56 | 244 | 3.5 | 8.7 | 0.09 | 0.57 | 0.51 | 92 | 1008.9 |
| 20260506110229 | 56 | 257 | 1.7 | 7.8 | 0.06 | 0.54 | 0.48 | 92 | 1008.9 |
| 20260506105228 | 56 | 191 | 0.9 | 1.7 | 0.07 | 0.54 | 0.48 | 92 | 1008.9 |
| 20260506104228 | 56 | 317 | 0.9 | 1.7 | 0.07 | 0.54 | 0.48 | 92 | 1008.8 |
| 20260506103228 | 56 | 295 | 0.9 | 5.2 | 0.06 | 0.53 | 0.47 | 92 | 1008.8 |
| 20260506102228 | 56 | 233 | 3.5 | 7.8 | 0.03 | 0.50 | 0.44 | 92 | 1009.0 |
| 20260506100235 | 58 | 291 | 0.9 | 3.5 | 0.01 | 0.48 | 0.42 | 88 | 1008.5 |
| 20260506094227 | 58 | 81 | 2.6 | 5.2 | 0.00 | 0.49 | 0.41 | 87 | 1008.3 |
| 20260506092225 | 57 | 19 | 1.7 | 3.5 | 0.00 | 0.50 | 0.41 | 89 | 1008.5 |
| 20260506090226 | 57 | 5 | 1.7 | 3.5 | 0.00 | 0.51 | 0.41 | 92 | 1008.9 |
| 20260506085225 | 57 | 45 | 0.9 | 2.6 | 0.00 | 0.51 | 0.41 | 90 | 1008.8 |
| 20260506084224 | 57 | 102 | 2.6 | 5.2 | 0.02 | 0.51 | 0.41 | 89 | 1008.7 |
| 20260506083223 | 57 | 96 | 2.6 | 6.1 | 0.03 | 0.51 | 0.41 | 91 | 1008.7 |
| 20260506082224 | 56 | 86 | 2.6 | 7.0 | 0.05 | 0.51 | 0.41 | 92 | 1008.9 |
| 20260506081223 | 56 | 31 | 1.7 | 4.3 | 0.06 | 0.51 | 0.41 | 93 | 1008.9 |
| 20260506080223 | 55 | 9 | 2.6 | 4.3 | 0.08 | 0.51 | 0.41 | 93 | 1008.8 |
| 20260506073220 | 55 | 88 | 3.5 | 7.0 | 0.10 | 0.48 | 0.38 | 94 | 1009.1 |
| 20260506072220 | 55 | 94 | 2.6 | 6.1 | 0.12 | 0.46 | 0.36 | 94 | 1009.3 |
| 20260506071220 | 55 | 57 | 2.6 | 6.1 | 0.14 | 0.46 | 0.35 | 95 | 1009.4 |
| 20260506070219 | 55 | 68 | 1.7 | 3.5 | 0.14 | 0.43 | 0.33 | 95 | 1009.3 |
| 20260506062217 | 55 | 148 | 0.9 | 2.6 | 0.08 | 0.34 | 0.24 | 95 | 1009.6 |
| 20260506061218 | 55 | 128 | 0.9 | 1.7 | 0.08 | 0.31 | 0.20 | 95 | 1009.6 |
| 20260506060217 | 55 | 18 | 0.9 | 2.6 | 0.07 | 0.29 | 0.19 | 95 | 1009.6 |
| 20260506051214 | 55 | 63 | 1.7 | 5.2 | 0.06 | 0.24 | 0.13 | 96 | 1009.4 |
| 20260506050212 | 55 | 138 | 1.7 | 2.6 | 0.04 | 0.22 | 0.12 | 96 | 1009.6 |
| 20260506044211 | 55 | 274 | 0.0 | 0.9 | 0.01 | 0.19 | 0.09 | 95 | 1009.5 |
| 20260506042212 | 55 | 259 | 0.9 | 3.5 | 0.00 | 0.18 | 0.08 | 95 | 1009.1 |
| 20260506041213 | 55 | 134 | 2.6 | 6.1 | 0.00 | 0.18 | 0.08 | 95 | 1008.9 |
| 20260506040211 | 55 | 124 | 2.6 | 5.2 | 0.00 | 0.18 | 0.08 | 95 | 1008.8 |
| 20260506035213 | 55 | 110 | 2.6 | 6.1 | 0.00 | 0.18 | 0.08 | 96 | 1008.8 |
| 20260506034212 | 55 | 111 | 1.7 | 4.3 | 0.00 | 0.18 | 0.08 | 96 | 1008.7 |
| 20260506033211 | 55 | 109 | 1.7 | 3.5 | 0.00 | 0.18 | 0.08 | 96 | 1008.9 |
| 20260506032212 | 55 | 132 | 0.9 | 1.7 | 0.00 | 0.18 | 0.08 | 96 | 1009.4 |
| 20260506030210 | 55 | 140 | 0.9 | 2.6 | 0.00 | 0.18 | 0.08 | 96 | 1009.7 |
| 20260506025210 | 55 | 148 | 0.9 | 3.5 | 0.00 | 0.18 | 0.08 | 96 | 1009.7 |
| 20260506022209 | 55 | 175 | 0.0 | 0.0 | 0.00 | 0.18 | 0.08 | 96 | 1010.2 |
| 20260506021210 | 55 | 175 | 0.0 | 0.0 | 0.00 | 0.18 | 0.08 | 96 | 1010.2 |
| 20260506020209 | 54 | 175 | 0.0 | 0.9 | 0.00 | 0.18 | 0.08 | 96 | 1010.3 |
| 20260506015222 | 54 | 175 | 1.7 | 4.3 | 0.00 | 0.18 | 0.08 | 96 | 1010.0 |
| 20260506014214 | 54 | 171 | 0.9 | 4.3 | 0.00 | 0.18 | 0.08 | 96 | 1009.9 |
| 20260506013217 | 55 | 139 | 0.0 | 1.7 | 0.00 | 0.18 | 0.08 | 96 | 1009.8 |
| 20260506012213 | 55 | 169 | 0.0 | 0.0 | 0.00 | 0.18 | 0.08 | 96 | 1009.9 |
| 20260506011217 | 55 | 187 | 0.0 | 0.0 | 0.00 | 0.18 | 0.08 | 96 | 1010.2 |
| 20260506010217 | 55 | 187 | 0.0 | 0.0 | 0.00 | 0.18 | 0.08 | 96 | 1010.3 |
| 20260506005217 | 55 | 187 | 0.0 | 0.0 | 0.00 | 0.18 | 0.08 | 96 | 1010.4 |
| 20260506004215 | 55 | 187 | 0.0 | 0.0 | 0.00 | 0.18 | 0.08 | 96 | 1010.5 |
| 20260506003210 | 55 | 187 | 0.0 | 0.0 | 0.01 | 0.18 | 0.08 | 96 | 1010.6 |
| 20260506001216 | 55 | 187 | 0.9 | 2.6 | 0.03 | 0.18 | 0.08 | 96 | 1010.7 |
| 20260505235216 | 55 | 273 | 0.9 | 1.7 | 0.04 | 0.18 | 0.08 | 96 | 1010.8 |
| 20260505234212 | 55 | 222 | 0.0 | 0.0 | 0.06 | 0.18 | 0.07 | 96 | 1010.9 |
| 20260505233212 | 55 | 222 | 0.9 | 1.7 | 0.07 | 0.17 | 0.07 | 96 | 1010.9 |
| 20260505232210 | 55 | 236 | 0.0 | 0.0 | 0.06 | 0.17 | 0.06 | 96 | 1011.0 |
| 20260505231214 | 55 | 236 | 0.0 | 1.7 | 0.05 | 0.15 | 0.05 | 96 | 1011.2 |
| 20260505230208 | 55 | 236 | 0.0 | 1.7 | 0.05 | 0.15 | 0.05 | 95 | 1011.0 |
| 20260505225214 | 55 | 236 | 0.9 | 3.5 | 0.04 | 0.14 | 0.03 | 95 | 1011.0 |
| 20260505224209 | 55 | 237 | 2.6 | 5.2 | 0.02 | 0.13 | 0.02 | 95 | 1011.1 |
| 20260505223204 | 55 | 283 | 1.7 | 3.5 | 0.00 | 0.10 | 0.00 | 94 | 1011.2 |
| 20260505222205 | 55 | 171 | 0.9 | 3.5 | 0.00 | 0.10 | 0.00 | 94 | 1011.1 |
| 20260505221212 | 56 | 154 | 0.0 | 0.9 | 0.00 | 0.10 | 0.00 | 94 | 1011.1 |
| 20260505220223 | 56 | 154 | 0.0 | 1.7 | 0.00 | 0.10 | 0.00 | 94 | 1011.1 |
| 20260505215204 | 55 | 154 | 0.9 | 1.7 | 0.00 | 0.10 | 0.10 | 94 | 1011.2 |
| 20260505214208 | 56 | 154 | 0.9 | 2.6 | 0.00 | 0.10 | 0.10 | 94 | 1011.4 |
| 20260505213209 | 56 | 107 | 0.0 | 0.9 | 0.00 | 0.10 | 0.10 | 94 | 1011.5 |
| 20260505212159 | 56 | 107 | 1.7 | 3.5 | 0.00 | 0.10 | 0.10 | 93 | 1011.6 |
| 20260505211205 | 56 | 95 | 2.6 | 6.1 | 0.00 | 0.10 | 0.10 | 93 | 1011.7 |
| 20260505210212 | 56 | 92 | 1.7 | 3.5 | 0.00 | 0.10 | 0.10 | 94 | 1011.8 |
| 20260505205206 | 56 | 100 | 0.0 | 2.6 | 0.00 | 0.10 | 0.10 | 94 | 1011.8 |
| 20260505204212 | 56 | 100 | 0.0 | 0.0 | 0.00 | 0.10 | 0.10 | 94 | 1011.9 |
| 20260505203212 | 56 | 100 | 0.0 | 0.0 | 0.00 | 0.10 | 0.10 | 95 | 1011.8 |
| 20260505201214 | 56 | 159 | 0.9 | 3.5 | 0.00 | 0.10 | 0.10 | 95 | 1012.0 |
| 20260505200206 | 56 | 159 | 0.9 | 2.6 | 0.00 | 0.10 | 0.10 | 95 | 1011.9 |
| 20260505195208 | 56 | 166 | 1.7 | 3.5 | 0.00 | 0.10 | 0.10 | 95 | 1011.8 |
| 20260505194159 | 56 | 294 | 0.9 | 1.7 | 0.00 | 0.10 | 0.10 | 94 | 1011.8 |
| 20260505193159 | 56 | 294 | 0.0 | 1.7 | 0.00 | 0.10 | 0.10 | 95 | 1011.7 |
| 20260505191211 | 56 | 274 | 0.0 | 0.0 | 0.00 | 0.10 | 0.10 | 94 | 1011.7 |
| 20260505190213 | 56 | 274 | 0.0 | 0.0 | 0.00 | 0.10 | 0.10 | 94 | 1011.7 |
| 20260505184159 | 56 | 274 | 0.0 | 0.0 | 0.00 | 0.10 | 0.10 | 93 | 1011.6 |
| 20260505183159 | 56 | 274 | 0.0 | 0.0 | 0.00 | 0.10 | 0.10 | 93 | 1011.5 |
| 20260505182212 | 56 | 274 | 0.0 | 0.0 | 0.00 | 0.10 | 0.10 | 92 | 1011.5 |
| 20260505181207 | 56 | 274 | 0.0 | 1.7 | 0.00 | 0.10 | 0.10 | 92 | 1011.4 |
| 20260505180157 | 56 | 274 | 0.0 | 0.9 | 0.01 | 0.10 | 0.10 | 92 | 1011.3 |
| 20260505174211 | 56 | 271 | 0.0 | 1.7 | 0.01 | 0.09 | 0.10 | 92 | 1011.3 |
| 20260505173155 | 56 | 252 | 1.7 | 2.6 | 0.02 | 0.09 | 0.10 | 93 | 1011.3 |
| 20260505172155 | 56 | 268 | 0.9 | 2.6 | 0.02 | 0.09 | 0.10 | 93 | 1011.3 |
| 20260505171202 | 56 | 254 | 0.9 | 2.6 | 0.03 | 0.09 | 0.10 | 93 | 1011.4 |
| 20260505170159 | 56 | 288 | 0.9 | 1.7 | 0.03 | 0.09 | 0.09 | 93 | 1011.3 |
| 20260505165208 | 56 | 303 | 0.9 | 2.6 | 0.04 | 0.06 | 0.09 | 93 | 1011.3 |
| 20260505164203 | 56 | 304 | 1.7 | 4.3 | 0.05 | 0.06 | 0.09 | 93 | 1011.3 |
| 20260505162209 | 57 | 269 | 1.7 | 6.1 | 0.03 | 0.06 | 0.08 | 93 | 1011.6 |
| 20260505160155 | 57 | 236 | 3.5 | 7.8 | 0.02 | 0.06 | 0.06 | 92 | 1011.6 |
| 20260505153157 | 58 | 263 | 5.2 | 8.7 | 0.00 | 0.05 | 0.05 | 89 | 1011.6 |
| 20260505152211 | 58 | 271 | 4.3 | 8.7 | 0.00 | 0.05 | 0.05 | 88 | 1011.7 |
| 20260505150201 | 58 | 263 | 3.5 | 7.8 | 0.00 | 0.05 | 0.05 | 87 | 1011.6 |
| 20260505140150 | 59 | 207 | 2.6 | 7.0 | 0.00 | 0.05 | 0.05 | 87 | 1011.6 |